Time,TemperatureF,DewpointF,PressureIn,WindDirection,WindDirectionDegrees,WindSpeedMPH,WindSpeedGustMPH,Humidity,HourlyPrecipIn,Conditions,Clouds,dailyrainin,SoftwareType,DateUTC
2013-04-24 00:01:00,37.3,32.9,30.18,NNW,328,0.0,0.0,84,0.00,,---,0.00,VWS V14.00,2013-04-24 05:01:00,
2013-04-24 00:06:00,37.2,32.8,30.18,NNW,329,0.0,0.0,84,0.00,,---,0.00,VWS V14.00,2013-04-24 05:06:00,
2013-04-24 00:11:00,37.2,32.8,30.18,NNW,340,0.0,0.0,84,0.00,,---,0.00,VWS V14.00,2013-04-24 05:11:00,
2013-04-24 00:16:00,37.1,32.7,30.18,NNW,336,0.0,0.0,84,0.00,,---,0.00,VWS V14.00,2013-04-24 05:16:00,
2013-04-24 00:21:00,37.1,32.7,30.18,NNW,333,0.0,0.0,84,0.00,,---,0.00,VWS V14.00,2013-04-24 05:21:00,
2013-04-24 00:26:00,37.1,32.7,30.18,NNW,342,0.0,0.0,84,0.00,,---,0.00,VWS V14.00,2013-04-24 05:26:00,
2013-04-24 00:31:00,37.1,32.7,30.18,NNW,342,0.0,0.0,84,0.00,,---,0.00,VWS V14.00,2013-04-24 05:31:00,
2013-04-24 00:36:00,37.1,32.7,30.18,NNW,335,0.0,0.0,84,0.00,,---,0.00,VWS V14.00,2013-04-24 05:36:00,
2013-04-24 00:41:00,37.1,32.7,30.18,NNW,341,0.0,0.0,84,0.00,,---,0.00,VWS V14.00,2013-04-24 05:41:00,
2013-04-24 00:46:00,37.1,32.7,30.19,NW,326,0.0,0.0,84,0.00,,---,0.00,VWS V14.00,2013-04-24 05:46:00,
2013-04-24 00:51:00,37.0,32.6,30.19,NW,322,0.0,0.0,84,0.00,,---,0.00,VWS V14.00,2013-04-24 05:51:00,
2013-04-24 00:56:00,37.0,32.3,30.19,NNW,335,0.0,0.0,83,0.00,,---,0.00,VWS V14.00,2013-04-24 05:56:00,
2013-04-24 01:01:00,37.0,32.3,30.19,NW,325,0.0,0.0,83,0.00,,---,0.00,VWS V14.00,2013-04-24 06:01:00,
2013-04-24 01:06:00,36.9,32.2,30.19,NNW,333,0.0,0.0,83,0.00,,---,0.00,VWS V14.00,2013-04-24 06:06:00,
2013-04-24 01:11:00,36.9,32.2,30.20,NNW,327,0.0,0.0,83,0.00,,---,0.00,VWS V14.00,2013-04-24 06:11:00,
2013-04-24 01:16:00,36.9,32.2,30.20,NNW,327,0.0,0.0,83,0.00,,---,0.00,VWS V14.00,2013-04-24 06:16:00,
2013-04-24 01:21:00,36.9,31.9,30.19,NNW,335,0.0,0.0,82,0.00,,---,0.00,VWS V14.00,2013-04-24 06:21:00,
2013-04-24 01:26:00,36.9,31.9,30.19,NNW,331,0.0,0.0,82,0.00,,---,0.00,VWS V14.00,2013-04-24 06:26:00,
2013-04-24 01:31:00,36.9,31.9,30.19,NW,326,0.0,0.0,82,0.00,,---,0.00,VWS V14.00,2013-04-24 06:31:00,
2013-04-24 01:36:00,36.9,31.9,30.19,NNW,327,0.0,0.0,82,0.00,,---,0.00,VWS V14.00,2013-04-24 06:36:00,
2013-04-24 01:41:00,36.9,31.9,30.19,NNW,329,0.0,0.0,82,0.00,,---,0.00,VWS V14.00,2013-04-24 06:41:00,
2013-04-24 01:46:00,36.9,31.6,30.18,NNW,331,0.0,0.0,81,0.00,,---,0.00,VWS V14.00,2013-04-24 06:46:00,
2013-04-24 01:51:00,36.9,31.6,30.18,NNW,331,0.0,0.0,81,0.00,,---,0.00,VWS V14.00,2013-04-24 06:51:00,
2013-04-24 01:56:00,36.9,31.6,30.18,NNW,333,0.0,0.0,81,0.00,,---,0.00,VWS V14.00,2013-04-24 06:56:00,
2013-04-24 02:01:00,36.9,31.6,30.18,NNW,331,0.0,0.0,81,0.00,,---,0.00,VWS V14.00,2013-04-24 07:01:00,
2013-04-24 02:06:00,36.9,31.6,30.18,NNW,329,0.0,0.0,81,0.00,,---,0.00,VWS V14.00,2013-04-24 07:06:00,
2013-04-24 02:11:00,37.0,31.7,30.18,NNW,331,0.0,0.0,81,0.00,,---,0.00,VWS V14.00,2013-04-24 07:11:00,
2013-04-24 02:16:00,37.0,31.7,30.19,NW,314,0.0,0.0,81,0.00,,---,0.00,VWS V14.00,2013-04-24 07:16:00,
2013-04-24 02:21:00,37.1,31.8,30.20,NNW,329,0.0,0.0,81,0.00,,---,0.00,VWS V14.00,2013-04-24 07:21:00,
2013-04-24 02:26:00,37.1,31.5,30.20,NNW,327,0.0,0.0,80,0.00,,---,0.00,VWS V14.00,2013-04-24 07:26:00,
2013-04-24 02:31:00,37.1,31.5,30.21,NW,317,0.0,0.0,80,0.00,,---,0.00,VWS V14.00,2013-04-24 07:31:00,
2013-04-24 02:36:00,37.2,31.6,30.21,NW,309,0.0,0.0,80,0.00,,---,0.00,VWS V14.00,2013-04-24 07:36:00,
2013-04-24 02:41:00,37.2,31.6,30.21,WNW,299,0.0,0.0,80,0.00,,---,0.00,VWS V14.00,2013-04-24 07:41:00,
2013-04-24 02:46:00,37.2,31.3,30.20,NW,322,0.0,0.0,79,0.00,,---,0.00,VWS V14.00,2013-04-24 07:46:00,
2013-04-24 02:51:00,37.2,31.3,30.21,NNW,336,0.0,0.0,79,0.00,,---,0.00,VWS V14.00,2013-04-24 07:51:00,
2013-04-24 02:56:00,37.2,31.3,30.22,NW,325,0.0,0.0,79,0.00,,---,0.00,VWS V14.00,2013-04-24 07:56:00,
2013-04-24 03:01:00,37.2,31.3,30.22,NW,319,0.0,0.0,79,0.00,,---,0.00,VWS V14.00,2013-04-24 08:01:00,
2013-04-24 03:06:00,37.2,31.0,30.23,NW,320,0.0,0.0,78,0.00,,---,0.00,VWS V14.00,2013-04-24 08:06:00,
2013-04-24 03:11:00,37.2,31.0,30.22,NW,325,0.0,0.0,78,0.00,,---,0.00,VWS V14.00,2013-04-24 08:11:00,
2013-04-24 03:16:00,37.2,31.0,30.23,NW,324,0.0,0.0,78,0.00,,---,0.00,VWS V14.00,2013-04-24 08:16:00,
2013-04-24 03:21:00,37.2,31.0,30.23,NW,321,0.0,0.0,78,0.00,,---,0.00,VWS V14.00,2013-04-24 08:21:00,
2013-04-24 03:26:00,37.2,31.0,30.24,NNW,331,0.0,0.0,78,0.00,,---,0.00,VWS V14.00,2013-04-24 08:26:00,
2013-04-24 03:31:00,37.2,31.3,30.24,NNW,337,0.0,0.0,79,0.00,,---,0.00,VWS V14.00,2013-04-24 08:31:00,
2013-04-24 03:36:00,37.2,31.3,30.24,NW,320,0.0,0.0,79,0.00,,---,0.00,VWS V14.00,2013-04-24 08:36:00,
2013-04-24 03:41:00,37.2,31.3,30.25,NNW,327,0.0,0.0,79,0.00,,---,0.00,VWS V14.00,2013-04-24 08:41:00,
2013-04-24 03:46:00,37.2,31.3,30.25,NW,325,0.0,0.0,79,0.00,,---,0.00,VWS V14.00,2013-04-24 08:46:00,
2013-04-24 03:51:00,37.2,31.3,30.25,NW,325,0.0,0.0,79,0.00,,---,0.00,VWS V14.00,2013-04-24 08:51:00,
2013-04-24 03:56:00,37.2,31.3,30.25,NW,326,0.0,0.0,79,0.00,,---,0.00,VWS V14.00,2013-04-24 08:56:00,
2013-04-24 04:01:00,37.2,31.3,30.25,NNW,343,0.0,0.0,79,0.00,,---,0.00,VWS V14.00,2013-04-24 09:01:00,
2013-04-24 04:06:00,37.1,31.2,30.25,NNW,330,0.0,0.0,79,0.00,,---,0.00,VWS V14.00,2013-04-24 09:06:00,
2013-04-24 04:11:00,37.1,31.2,30.24,NNW,333,0.0,0.0,79,0.00,,---,0.00,VWS V14.00,2013-04-24 09:11:00,
2013-04-24 04:16:00,37.0,31.1,30.24,NNW,338,0.0,0.0,79,0.00,,---,0.00,VWS V14.00,2013-04-24 09:16:00,
2013-04-24 04:21:00,37.0,31.1,30.23,North,355,0.0,0.0,79,0.00,,---,0.00,VWS V14.00,2013-04-24 09:21:00,
2013-04-24 04:26:00,36.8,30.9,30.23,North,355,0.0,0.0,79,0.00,,---,0.00,VWS V14.00,2013-04-24 09:26:00,
2013-04-24 04:31:00,36.6,30.7,30.23,North,355,0.0,0.0,79,0.00,,---,0.00,VWS V14.00,2013-04-24 09:31:00,
2013-04-24 04:36:00,36.4,30.5,30.22,North,355,0.0,0.0,79,0.00,,---,0.00,VWS V14.00,2013-04-24 09:36:00,
2013-04-24 04:41:00,36.1,30.2,30.23,North,355,0.0,0.0,79,0.00,,---,0.00,VWS V14.00,2013-04-24 09:41:00,
2013-04-24 04:46:00,35.9,30.3,30.23,North,355,0.0,0.0,80,0.00,,---,0.00,VWS V14.00,2013-04-24 09:46:00,
2013-04-24 04:51:00,35.7,30.1,30.24,North,355,0.0,0.0,80,0.00,,---,0.00,VWS V14.00,2013-04-24 09:51:00,
2013-04-24 04:56:00,35.5,30.0,30.25,North,355,0.0,0.0,80,0.00,,---,0.00,VWS V14.00,2013-04-24 09:56:00,
2013-04-24 05:01:00,35.3,30.1,30.25,NNW,346,0.0,0.0,81,0.00,,---,0.00,VWS V14.00,2013-04-24 10:01:00,
2013-04-24 05:06:00,35.1,29.9,30.25,NNW,338,0.0,0.0,81,0.00,,---,0.00,VWS V14.00,2013-04-24 10:06:00,
2013-04-24 05:11:00,35.0,30.1,30.25,NNW,340,0.0,0.0,82,0.00,,---,0.00,VWS V14.00,2013-04-24 10:11:00,
2013-04-24 05:16:00,35.0,30.1,30.25,NNW,340,0.0,0.0,82,0.00,,---,0.00,VWS V14.00,2013-04-24 10:16:00,
2013-04-24 05:21:00,34.8,29.9,30.25,NNW,340,0.0,0.0,82,0.00,,---,0.00,VWS V14.00,2013-04-24 10:21:00,
2013-04-24 05:26:00,34.6,29.7,30.25,NNW,340,0.0,0.0,82,0.00,,---,0.00,VWS V14.00,2013-04-24 10:26:00,
2013-04-24 05:31:00,34.4,29.5,30.25,NNW,340,0.0,0.0,82,0.00,,---,0.00,VWS V14.00,2013-04-24 10:31:00,
2013-04-24 05:36:00,34.4,29.8,30.25,NNW,340,0.0,0.0,83,0.00,,---,0.00,VWS V14.00,2013-04-24 10:36:00,
2013-04-24 05:41:00,34.3,29.7,30.25,NNW,340,0.0,0.0,83,0.00,,---,0.00,VWS V14.00,2013-04-24 10:41:00,
2013-04-24 05:46:00,34.1,29.5,30.25,NNW,340,0.0,0.0,83,0.00,,---,0.00,VWS V14.00,2013-04-24 10:46:00,
2013-04-24 05:51:00,33.9,29.3,30.26,NNW,340,0.0,0.0,83,0.00,,---,0.00,VWS V14.00,2013-04-24 10:51:00,
2013-04-24 05:56:00,33.7,29.4,30.26,NNW,340,0.0,0.0,84,0.00,,---,0.00,VWS V14.00,2013-04-24 10:56:00,
2013-04-24 06:01:00,33.6,29.3,30.26,NNW,340,4.0,4.0,84,0.00,,---,0.00,VWS V14.00,2013-04-24 11:01:00,
2013-04-24 06:06:00,33.4,29.1,30.27,NNW,340,3.0,4.0,84,0.00,,---,0.00,VWS V14.00,2013-04-24 11:06:00,
2013-04-24 06:11:00,33.2,28.9,30.27,NNW,340,3.0,5.0,84,0.00,,---,0.00,VWS V14.00,2013-04-24 11:11:00,
2013-04-24 06:16:00,33.0,28.7,30.26,NNW,340,2.0,4.0,84,0.00,,---,0.00,VWS V14.00,2013-04-24 11:16:00,
2013-04-24 06:21:00,32.8,28.8,30.27,NNW,340,1.0,4.0,85,0.00,,---,0.00,VWS V14.00,2013-04-24 11:21:00,
2013-04-24 06:26:00,32.7,28.7,30.27,NNW,340,0.0,0.0,85,0.00,,---,0.00,VWS V14.00,2013-04-24 11:26:00,
2013-04-24 06:31:00,32.5,28.5,30.27,NNW,340,0.0,0.0,85,0.00,,---,0.00,VWS V14.00,2013-04-24 11:31:00,
2013-04-24 06:36:00,32.4,28.4,30.27,NNW,340,0.0,0.0,85,0.00,,---,0.00,VWS V14.00,2013-04-24 11:36:00,
2013-04-24 06:41:00,32.2,28.2,30.27,NNW,340,0.0,0.0,85,0.00,,---,0.00,VWS V14.00,2013-04-24 11:41:00,
2013-04-24 06:46:00,32.1,28.1,30.27,NNW,340,0.0,0.0,85,0.00,,---,0.00,VWS V14.00,2013-04-24 11:46:00,
2013-04-24 06:51:00,32.0,28.3,30.27,NNW,340,0.0,0.0,86,0.00,,---,0.00,VWS V14.00,2013-04-24 11:51:00,
2013-04-24 06:56:00,32.0,28.3,30.28,NNW,340,0.0,0.0,86,0.00,,---,0.00,VWS V14.00,2013-04-24 11:56:00,
2013-04-24 07:01:00,32.0,28.6,30.28,NNW,334,0.0,0.0,87,0.00,,---,0.00,VWS V14.00,2013-04-24 12:01:00,
2013-04-24 07:06:00,32.0,28.6,30.28,NNW,334,0.0,0.0,87,0.00,,---,0.00,VWS V14.00,2013-04-24 12:06:00,
2013-04-24 07:11:00,32.1,28.7,30.27,NNW,334,0.0,0.0,87,0.00,,---,0.00,VWS V14.00,2013-04-24 12:11:00,
2013-04-24 07:16:00,32.2,28.8,30.28,NNW,334,0.0,0.0,87,0.00,,---,0.00,VWS V14.00,2013-04-24 12:16:00,
2013-04-24 07:21:00,32.4,29.0,30.28,NNW,334,0.0,0.0,87,0.00,,---,0.00,VWS V14.00,2013-04-24 12:21:00,
2013-04-24 07:26:00,32.5,29.1,30.28,NNW,334,0.0,0.0,87,0.00,,---,0.00,VWS V14.00,2013-04-24 12:26:00,
2013-04-24 07:31:00,32.6,29.2,30.28,NNW,334,0.0,0.0,87,0.00,,---,0.00,VWS V14.00,2013-04-24 12:31:00,
2013-04-24 07:36:00,32.8,29.6,30.28,NNW,334,0.0,0.0,88,0.00,,---,0.00,VWS V14.00,2013-04-24 12:36:00,
2013-04-24 07:41:00,33.0,29.8,30.28,NNW,334,0.0,0.0,88,0.00,,---,0.00,VWS V14.00,2013-04-24 12:41:00,
2013-04-24 07:46:00,33.3,30.1,30.28,NNW,334,0.0,0.0,88,0.00,,---,0.00,VWS V14.00,2013-04-24 12:46:00,
2013-04-24 07:51:00,33.6,30.4,30.29,NNW,334,0.0,0.0,88,0.00,,---,0.00,VWS V14.00,2013-04-24 12:51:00,
2013-04-24 07:56:00,33.8,30.6,30.30,NNW,333,0.0,0.0,88,0.00,,---,0.00,VWS V14.00,2013-04-24 12:56:00,
2013-04-24 08:01:00,34.1,30.9,30.30,NNW,333,0.0,0.0,88,0.00,,---,0.00,VWS V14.00,2013-04-24 13:01:00,
2013-04-24 08:06:00,34.4,30.9,30.30,NNW,329,0.0,0.0,87,0.00,,---,0.00,VWS V14.00,2013-04-24 13:06:00,
2013-04-24 08:11:00,34.5,31.0,30.30,NNW,327,0.0,0.0,87,0.00,,---,0.00,VWS V14.00,2013-04-24 13:11:00,
2013-04-24 08:16:00,34.9,31.4,30.29,NNW,327,0.0,0.0,87,0.00,,---,0.00,VWS V14.00,2013-04-24 13:16:00,
2013-04-24 08:21:00,35.2,31.4,30.30,NNW,327,0.0,0.0,86,0.00,,---,0.00,VWS V14.00,2013-04-24 13:21:00,
2013-04-24 08:26:00,35.6,31.5,30.30,NNW,338,0.0,0.0,85,0.00,,---,0.00,VWS V14.00,2013-04-24 13:26:00,
2013-04-24 08:31:00,36.0,31.6,30.30,NW,324,0.0,0.0,84,0.00,,---,0.00,VWS V14.00,2013-04-24 13:31:00,
2013-04-24 08:36:00,36.3,31.6,30.31,NW,326,0.0,0.0,83,0.00,,---,0.00,VWS V14.00,2013-04-24 13:36:00,
2013-04-24 08:41:00,36.6,31.6,30.31,NNW,336,0.0,0.0,82,0.00,,---,0.00,VWS V14.00,2013-04-24 13:41:00,
2013-04-24 08:46:00,37.1,31.8,30.31,NNW,338,0.0,0.0,81,0.00,,---,0.00,VWS V14.00,2013-04-24 13:46:00,
2013-04-24 08:51:00,37.4,31.5,30.30,NNW,337,0.0,0.0,79,0.00,,---,0.00,VWS V14.00,2013-04-24 13:51:00,
2013-04-24 08:56:00,37.7,31.1,30.30,NNW,329,0.0,0.0,77,0.00,,---,0.00,VWS V14.00,2013-04-24 13:56:00,
2013-04-24 09:01:00,38.1,31.5,30.30,NNW,329,0.0,0.0,77,0.00,,---,0.00,VWS V14.00,2013-04-24 14:01:00,
2013-04-24 09:06:00,38.6,31.0,30.30,NNW,330,0.0,0.0,74,0.00,,---,0.00,VWS V14.00,2013-04-24 14:06:00,
2013-04-24 09:11:00,38.9,31.0,30.30,NNW,345,0.0,0.0,73,0.00,,---,0.00,VWS V14.00,2013-04-24 14:11:00,
2013-04-24 09:16:00,39.4,30.1,30.30,NNW,337,0.0,0.0,69,0.00,,---,0.00,VWS V14.00,2013-04-24 14:16:00,
2013-04-24 09:21:00,39.9,29.9,30.31,NNW,339,0.0,0.0,67,0.00,,---,0.00,VWS V14.00,2013-04-24 14:21:00,
2013-04-24 09:26:00,40.2,28.6,30.31,North,5,0.0,0.0,63,0.00,,---,0.00,VWS V14.00,2013-04-24 14:26:00,
2013-04-24 09:31:00,40.5,27.7,30.30,North,355,0.0,0.0,60,0.00,,---,0.00,VWS V14.00,2013-04-24 14:31:00,
2013-04-24 09:36:00,40.9,28.5,30.31,NNW,348,0.0,0.0,61,0.00,,---,0.00,VWS V14.00,2013-04-24 14:36:00,
2013-04-24 09:41:00,41.2,29.2,30.31,North,5,0.0,0.0,62,0.00,,---,0.00,VWS V14.00,2013-04-24 14:41:00,
2013-04-24 09:46:00,41.6,28.8,30.31,North,360,0.0,0.0,60,0.00,,---,0.00,VWS V14.00,2013-04-24 14:46:00,
2013-04-24 09:51:00,41.8,29.0,30.32,NNW,345,0.0,0.0,60,0.00,,---,0.00,VWS V14.00,2013-04-24 14:51:00,
2013-04-24 09:56:00,42.3,29.0,30.32,NNW,343,0.0,0.0,59,0.00,,---,0.00,VWS V14.00,2013-04-24 14:56:00,
2013-04-24 10:01:00,42.6,28.9,30.32,NNW,335,0.0,0.0,58,0.00,,---,0.00,VWS V14.00,2013-04-24 15:01:00,
2013-04-24 10:09:00,42.8,29.1,30.32,NNW,341,0.0,0.0,58,0.00,,---,0.00,VWS V14.00,2013-04-24 15:09:00,
2013-04-24 10:14:00,43.0,28.4,30.32,NNW,335,0.0,0.0,56,0.00,,---,0.00,VWS V14.00,2013-04-24 15:14:00,
2013-04-24 10:19:00,43.1,28.0,30.32,NNW,338,0.0,0.0,55,0.00,,---,0.00,VWS V14.00,2013-04-24 15:19:00,
2013-04-24 10:24:00,43.2,28.1,30.32,North,355,0.0,0.0,55,0.00,,---,0.00,VWS V14.00,2013-04-24 15:24:00,
2013-04-24 10:29:00,43.3,27.3,30.32,NNW,327,0.0,0.0,53,0.00,,---,0.00,VWS V14.00,2013-04-24 15:29:00,
2013-04-24 10:34:00,43.5,28.9,30.32,North,355,0.0,0.0,56,0.00,,---,0.00,VWS V14.00,2013-04-24 15:34:00,
2013-04-24 10:39:00,43.7,27.2,30.32,NW,321,0.0,0.0,52,0.00,,---,0.00,VWS V14.00,2013-04-24 15:39:00,
2013-04-24 10:44:00,43.9,27.0,30.32,NNW,335,0.0,0.0,51,0.00,,---,0.00,VWS V14.00,2013-04-24 15:44:00,
2013-04-24 10:49:00,44.1,28.1,30.32,NNW,329,0.0,0.0,53,0.00,,---,0.00,VWS V14.00,2013-04-24 15:49:00,
2013-04-24 10:54:00,44.3,27.8,30.32,NNW,343,0.0,0.0,52,0.00,,---,0.00,VWS V14.00,2013-04-24 15:54:00,
2013-04-24 10:59:00,44.6,28.1,30.32,NW,319,0.0,0.0,52,0.00,,---,0.00,VWS V14.00,2013-04-24 15:59:00,
2013-04-24 11:04:00,44.6,27.6,30.32,NNW,333,0.0,0.0,51,0.00,,---,0.00,VWS V14.00,2013-04-24 16:04:00,
2013-04-24 11:09:00,44.9,28.4,30.31,NNE,23,0.0,0.0,52,0.00,,---,0.00,VWS V14.00,2013-04-24 16:09:00,
2013-04-24 11:14:00,45.2,28.6,30.31,NW,323,0.0,0.0,52,0.00,,---,0.00,VWS V14.00,2013-04-24 16:14:00,
2013-04-24 11:19:00,45.5,28.0,30.31,NNW,338,0.0,0.0,50,0.00,,---,0.00,VWS V14.00,2013-04-24 16:19:00,
2013-04-24 11:24:00,45.7,28.1,30.31,North,355,0.0,0.0,50,0.00,,---,0.00,VWS V14.00,2013-04-24 16:24:00,
2013-04-24 11:29:00,46.1,28.0,30.31,NNW,333,0.0,0.0,49,0.00,,---,0.00,VWS V14.00,2013-04-24 16:29:00,
2013-04-24 11:34:00,46.2,27.6,30.31,NNW,347,0.0,0.0,48,0.00,,---,0.00,VWS V14.00,2013-04-24 16:34:00,
2013-04-24 11:39:00,46.3,27.7,30.31,North,355,0.0,0.0,48,0.00,,---,0.00,VWS V14.00,2013-04-24 16:39:00,
2013-04-24 11:44:00,46.6,27.5,30.31,NNW,329,0.0,0.0,47,0.00,,---,0.00,VWS V14.00,2013-04-24 16:44:00,
2013-04-24 11:49:00,46.8,27.6,30.31,NNW,342,0.0,0.0,47,0.00,,---,0.00,VWS V14.00,2013-04-24 16:49:00,
2013-04-24 11:54:00,46.9,27.7,30.31,NNE,26,0.0,0.0,47,0.00,,---,0.00,VWS V14.00,2013-04-24 16:54:00,
2013-04-24 11:59:00,47.1,28.4,30.31,NNW,344,0.0,0.0,48,0.00,,---,0.00,VWS V14.00,2013-04-24 16:59:00,
2013-04-24 12:04:00,47.3,28.1,30.31,NNW,344,0.0,0.0,47,0.00,,---,0.00,VWS V14.00,2013-04-24 17:04:00,
2013-04-24 12:09:00,47.9,29.2,30.31,NNE,20,0.0,0.0,48,0.00,,---,0.00,VWS V14.00,2013-04-24 17:09:00,
2013-04-24 12:14:00,47.9,27.6,30.31,NNE,17,0.0,0.0,45,0.00,,---,0.00,VWS V14.00,2013-04-24 17:14:00,
2013-04-24 12:19:00,48.4,27.5,30.31,NNE,22,0.0,0.0,44,0.00,,---,0.00,VWS V14.00,2013-04-24 17:19:00,
2013-04-24 12:24:00,48.6,28.2,30.31,NNW,342,0.0,0.0,45,0.00,,---,0.00,VWS V14.00,2013-04-24 17:24:00,
2013-04-24 12:29:00,48.9,28.0,30.31,North,9,0.0,0.0,44,0.00,,---,0.00,VWS V14.00,2013-04-24 17:29:00,
2013-04-24 12:34:00,49.4,29.0,30.31,NNW,342,0.0,0.0,45,0.00,,---,0.00,VWS V14.00,2013-04-24 17:34:00,
2013-04-24 12:39:00,49.8,28.8,30.31,NNE,13,0.0,0.0,44,0.00,,---,0.00,VWS V14.00,2013-04-24 17:39:00,
2013-04-24 12:44:00,49.7,28.1,30.31,NNE,23,0.0,0.0,43,0.00,,---,0.00,VWS V14.00,2013-04-24 17:44:00,
2013-04-24 12:49:00,49.8,27.1,30.31,North,355,0.0,0.0,41,0.00,,---,0.00,VWS V14.00,2013-04-24 17:49:00,
2013-04-24 12:54:00,49.8,28.2,30.30,NW,307,0.0,0.0,43,0.00,,---,0.00,VWS V14.00,2013-04-24 17:54:00,
2013-04-24 12:59:00,49.8,27.6,30.30,NW,307,0.0,0.0,42,0.00,,---,0.00,VWS V14.00,2013-04-24 17:59:00,
2013-04-24 13:04:00,50.1,28.5,30.30,NNE,18,0.0,0.0,43,0.00,,---,0.00,VWS V14.00,2013-04-24 18:04:00,
2013-04-24 13:09:00,50.5,29.4,30.30,NW,312,0.0,0.0,44,0.00,,---,0.00,VWS V14.00,2013-04-24 18:09:00,
2013-04-24 13:14:00,50.8,28.5,30.30,NW,323,0.0,0.0,42,0.00,,---,0.00,VWS V14.00,2013-04-24 18:14:00,
2013-04-24 13:19:00,50.8,28.0,30.30,NNW,331,0.0,0.0,41,0.00,,---,0.00,VWS V14.00,2013-04-24 18:19:00,
2013-04-24 13:24:00,51.1,28.8,30.30,North,355,0.0,0.0,42,0.00,,---,0.00,VWS V14.00,2013-04-24 18:24:00,
2013-04-24 13:29:00,51.3,29.0,30.30,NNW,335,0.0,0.0,42,0.00,,---,0.00,VWS V14.00,2013-04-24 18:29:00,
2013-04-24 13:34:00,51.6,30.4,30.29,NW,324,0.0,0.0,44,0.00,,---,0.00,VWS V14.00,2013-04-24 18:34:00,
2013-04-24 13:39:00,51.9,30.1,30.29,NNE,17,0.0,0.0,43,0.00,,---,0.00,VWS V14.00,2013-04-24 18:39:00,
2013-04-24 13:44:00,52.2,29.8,30.29,NNW,342,0.0,0.0,42,0.00,,---,0.00,VWS V14.00,2013-04-24 18:44:00,
2013-04-24 13:49:00,52.3,28.1,30.29,NNW,341,0.0,0.0,39,0.00,,---,0.00,VWS V14.00,2013-04-24 18:49:00,
2013-04-24 13:54:00,52.7,29.7,30.30,NNW,341,0.0,0.0,41,0.00,,---,0.00,VWS V14.00,2013-04-24 18:54:00,
2013-04-24 13:59:00,52.9,30.5,30.29,NNE,15,0.0,0.0,42,0.00,,---,0.00,VWS V14.00,2013-04-24 18:59:00,
2013-04-24 14:04:00,52.8,29.8,30.29,North,350,0.0,0.0,41,0.00,,---,0.00,VWS V14.00,2013-04-24 19:04:00,
2013-04-24 14:09:00,52.8,28.5,30.29,WNW,297,0.0,0.0,39,0.00,,---,0.00,VWS V14.00,2013-04-24 19:09:00,
2013-04-24 14:14:00,53.2,28.9,30.29,NW,319,0.0,0.0,39,0.00,,---,0.00,VWS V14.00,2013-04-24 19:14:00,
2013-04-24 14:19:00,53.4,29.1,30.28,WNW,292,0.0,0.0,39,0.00,,---,0.00,VWS V14.00,2013-04-24 19:19:00,
2013-04-24 14:24:00,53.5,27.9,30.28,North,355,0.0,0.0,37,0.00,,---,0.00,VWS V14.00,2013-04-24 19:24:00,
2013-04-24 14:29:00,53.5,28.5,30.28,North,350,0.0,0.0,38,0.00,,---,0.00,VWS V14.00,2013-04-24 19:29:00,
2013-04-24 14:34:00,53.6,28.0,30.28,North,355,0.0,0.0,37,0.00,,---,0.00,VWS V14.00,2013-04-24 19:34:00,
2013-04-24 14:39:00,53.6,31.1,30.28,NNW,339,0.0,0.0,42,0.00,,---,0.00,VWS V14.00,2013-04-24 19:39:00,
2013-04-24 14:44:00,53.7,29.4,30.28,NW,323,0.0,0.0,39,0.00,,---,0.00,VWS V14.00,2013-04-24 19:44:00,
2013-04-24 14:49:00,54.0,30.9,30.28,NW,322,0.0,0.0,41,0.00,,---,0.00,VWS V14.00,2013-04-24 19:49:00,
2013-04-24 14:54:00,54.1,30.3,30.28,NW,321,0.0,0.0,40,0.00,,---,0.00,VWS V14.00,2013-04-24 19:54:00,
2013-04-24 14:59:00,54.2,29.8,30.27,NNW,327,0.0,0.0,39,0.00,,---,0.00,VWS V14.00,2013-04-24 19:59:00,
2013-04-24 15:04:00,54.5,29.4,30.27,NNW,342,0.0,0.0,38,0.00,,---,0.00,VWS V14.00,2013-04-24 20:04:00,
2013-04-24 15:09:00,54.7,30.2,30.27,NNW,342,0.0,0.0,39,0.00,,---,0.00,VWS V14.00,2013-04-24 20:09:00,
2013-04-24 15:14:00,55.2,30.7,30.27,NNW,338,0.0,0.0,39,0.00,,---,0.00,VWS V14.00,2013-04-24 20:14:00,
2013-04-24 15:19:00,55.4,28.9,30.27,NNW,333,0.0,0.0,36,0.00,,---,0.00,VWS V14.00,2013-04-24 20:19:00,
2013-04-24 15:24:00,55.5,31.0,30.26,NNW,333,0.0,0.0,39,0.00,,---,0.00,VWS V14.00,2013-04-24 20:24:00,
2013-04-24 15:29:00,55.7,31.1,30.26,NNW,333,0.0,0.0,39,0.00,,---,0.00,VWS V14.00,2013-04-24 20:29:00,
2013-04-24 15:34:00,55.8,29.9,30.26,North,355,0.0,0.0,37,0.00,,---,0.00,VWS V14.00,2013-04-24 20:34:00,
2013-04-24 15:39:00,55.9,30.7,30.26,North,350,0.0,0.0,38,0.00,,---,0.00,VWS V14.00,2013-04-24 20:39:00,
2013-04-24 15:44:00,56.0,30.8,30.26,WNW,300,0.0,0.0,38,0.00,,---,0.00,VWS V14.00,2013-04-24 20:44:00,
2013-04-24 15:49:00,56.4,30.5,30.25,NNW,345,0.0,0.0,37,0.00,,---,0.00,VWS V14.00,2013-04-24 20:49:00,
2013-04-24 15:54:00,56.3,29.7,30.25,North,10,0.0,0.0,36,0.00,,---,0.00,VWS V14.00,2013-04-24 20:54:00,
2013-04-24 15:59:00,56.3,29.0,30.25,North,360,0.0,0.0,35,0.00,,---,0.00,VWS V14.00,2013-04-24 20:59:00,
2013-04-24 16:04:00,56.4,30.5,30.24,NNE,23,0.0,0.0,37,0.00,,---,0.00,VWS V14.00,2013-04-24 21:04:00,
2013-04-24 16:09:00,56.3,29.7,30.24,NNW,345,0.0,0.0,36,0.00,,---,0.00,VWS V14.00,2013-04-24 21:09:00,
2013-04-24 16:14:00,56.4,29.1,30.24,NNW,331,0.0,0.0,35,0.00,,---,0.00,VWS V14.00,2013-04-24 21:14:00,
2013-04-24 16:19:00,56.5,29.9,30.24,NNW,335,0.0,0.0,36,0.00,,---,0.00,VWS V14.00,2013-04-24 21:19:00,
2013-04-24 16:24:00,56.9,29.5,30.24,NW,323,0.0,0.0,35,0.00,,---,0.00,VWS V14.00,2013-04-24 21:24:00,
2013-04-24 16:29:00,56.8,30.1,30.24,NNW,327,0.0,0.0,36,0.00,,---,0.00,VWS V14.00,2013-04-24 21:29:00,
2013-04-24 16:34:00,56.8,29.5,30.24,NW,325,0.0,0.0,35,0.00,,---,0.00,VWS V14.00,2013-04-24 21:34:00,
2013-04-24 16:39:00,57.1,31.8,30.24,NW,325,0.0,0.0,38,0.00,,---,0.00,VWS V14.00,2013-04-24 21:39:00,
2013-04-24 16:44:00,57.4,30.7,30.24,NW,325,0.0,0.0,36,0.00,,---,0.00,VWS V14.00,2013-04-24 21:44:00,
2013-04-24 16:49:00,57.6,30.2,30.24,NW,326,0.0,0.0,35,0.00,,---,0.00,VWS V14.00,2013-04-24 21:49:00,
2013-04-24 16:54:00,57.5,29.4,30.24,North,360,0.0,0.0,34,0.00,,---,0.00,VWS V14.00,2013-04-24 21:54:00,
2013-04-24 16:59:00,57.6,30.2,30.23,NNW,335,0.0,0.0,35,0.00,,---,0.00,VWS V14.00,2013-04-24 21:59:00,
2013-04-24 17:04:00,57.5,28.6,30.23,NE,42,0.0,0.0,33,0.00,,---,0.00,VWS V14.00,2013-04-24 22:04:00,
2013-04-24 17:09:00,57.2,29.1,30.23,NE,38,0.0,0.0,34,0.00,,---,0.00,VWS V14.00,2013-04-24 22:09:00,
2013-04-24 17:14:00,57.2,31.2,30.23,NE,39,0.0,0.0,37,0.00,,---,0.00,VWS V14.00,2013-04-24 22:14:00,
2013-04-24 17:19:00,57.2,30.5,30.23,NNE,29,0.0,0.0,36,0.00,,---,0.00,VWS V14.00,2013-04-24 22:19:00,
2013-04-24 17:24:00,57.5,31.5,30.23,NNE,16,0.0,0.0,37,0.00,,---,0.00,VWS V14.00,2013-04-24 22:24:00,
2013-04-24 17:29:00,57.7,30.3,30.23,NNE,28,0.0,0.0,35,0.00,,---,0.00,VWS V14.00,2013-04-24 22:29:00,
2013-04-24 17:34:00,57.5,30.1,30.23,NNE,28,0.0,0.0,35,0.00,,---,0.00,VWS V14.00,2013-04-24 22:34:00,
2013-04-24 17:39:00,57.6,30.9,30.23,NE,50,0.0,0.0,36,0.00,,---,0.00,VWS V14.00,2013-04-24 22:39:00,
2013-04-24 17:44:00,57.5,30.8,30.23,NE,38,0.0,0.0,36,0.00,,---,0.00,VWS V14.00,2013-04-24 22:44:00,
2013-04-24 17:49:00,57.5,32.1,30.23,NE,37,0.0,0.0,38,0.00,,---,0.00,VWS V14.00,2013-04-24 22:49:00,
2013-04-24 17:54:00,57.5,31.5,30.23,East,90,0.0,0.0,37,0.00,,---,0.00,VWS V14.00,2013-04-24 22:54:00,
2013-04-24 17:59:00,57.3,30.6,30.22,East,88,0.0,0.0,36,0.00,,---,0.00,VWS V14.00,2013-04-24 22:59:00,
2013-04-24 18:04:00,57.0,30.3,30.23,East,80,0.0,0.0,36,0.00,,---,0.00,VWS V14.00,2013-04-24 23:04:00,
2013-04-24 18:09:00,57.1,31.1,30.23,ENE,69,0.0,0.0,37,0.00,,---,0.00,VWS V14.00,2013-04-24 23:09:00,
2013-04-24 18:14:00,56.8,30.1,30.23,ENE,67,0.0,0.0,36,0.00,,---,0.00,VWS V14.00,2013-04-24 23:14:00,
2013-04-24 18:19:00,56.6,30.0,30.23,ENE,67,0.0,0.0,36,0.00,,---,0.00,VWS V14.00,2013-04-24 23:19:00,
2013-04-24 18:24:00,56.7,30.1,30.23,ENE,59,0.0,0.0,36,0.00,,---,0.00,VWS V14.00,2013-04-24 23:24:00,
2013-04-24 18:29:00,56.8,30.1,30.24,ENE,59,0.0,0.0,36,0.00,,---,0.00,VWS V14.00,2013-04-24 23:29:00,
2013-04-24 18:34:00,56.8,30.8,30.24,ENE,59,0.0,0.0,37,0.00,,---,0.00,VWS V14.00,2013-04-24 23:34:00,
2013-04-24 18:39:00,56.7,30.7,30.24,ENE,59,0.0,0.0,37,0.00,,---,0.00,VWS V14.00,2013-04-24 23:39:00,
2013-04-24 18:44:00,56.5,31.2,30.24,ENE,59,0.0,0.0,38,0.00,,---,0.00,VWS V14.00,2013-04-24 23:44:00,
2013-04-24 18:49:00,56.3,32.3,30.24,ENE,59,0.0,0.0,40,0.00,,---,0.00,VWS V14.00,2013-04-24 23:49:00,
2013-04-24 18:54:00,56.2,31.0,30.24,ENE,77,0.0,0.0,38,0.00,,---,0.00,VWS V14.00,2013-04-24 23:54:00,
2013-04-24 18:59:00,56.2,31.0,30.23,ENE,77,0.0,0.0,38,0.00,,---,0.00,VWS V14.00,2013-04-24 23:59:00,
2013-04-24 19:04:00,56.2,31.6,30.23,ENE,77,0.0,0.0,39,0.00,,---,0.00,VWS V14.00,2013-04-25 00:04:00,
2013-04-24 19:09:00,55.9,32.6,30.24,ENE,77,0.0,0.0,41,0.00,,---,0.00,VWS V14.00,2013-04-25 00:09:00,
2013-04-24 19:14:00,55.7,33.0,30.24,ENE,77,0.0,0.0,42,0.00,,---,0.00,VWS V14.00,2013-04-25 00:14:00,
2013-04-24 19:19:00,55.4,31.5,30.24,ENE,77,0.0,0.0,40,0.00,,---,0.00,VWS V14.00,2013-04-25 00:19:00,
2013-04-24 19:24:00,55.2,33.7,30.24,ENE,77,0.0,0.0,44,0.00,,---,0.00,VWS V14.00,2013-04-25 00:24:00,
2013-04-24 19:29:00,54.8,32.8,30.24,ENE,77,0.0,0.0,43,0.00,,---,0.00,VWS V14.00,2013-04-25 00:29:00,
2013-04-24 19:34:00,54.5,33.0,30.24,ENE,77,0.0,0.0,44,0.00,,---,0.00,VWS V14.00,2013-04-25 00:34:00,
2013-04-24 19:39:00,54.2,32.8,30.24,ENE,77,0.0,0.0,44,0.00,,---,0.00,VWS V14.00,2013-04-25 00:39:00,
2013-04-24 19:44:00,53.9,31.4,30.24,ENE,77,0.0,0.0,42,0.00,,---,0.00,VWS V14.00,2013-04-25 00:44:00,
2013-04-24 19:49:00,53.8,31.3,30.24,ENE,77,0.0,0.0,42,0.00,,---,0.00,VWS V14.00,2013-04-25 00:49:00,
2013-04-24 19:54:00,53.8,31.3,30.24,ENE,77,0.0,0.0,42,0.00,,---,0.00,VWS V14.00,2013-04-25 00:54:00,
2013-04-24 19:59:00,53.7,30.6,30.24,ENE,77,0.0,0.0,41,0.00,,---,0.00,VWS V14.00,2013-04-25 00:59:00,
2013-04-24 20:04:00,53.5,30.4,30.25,ENE,77,0.0,0.0,41,0.00,,---,0.00,VWS V14.00,2013-04-25 01:04:00,
2013-04-24 20:09:00,53.3,31.4,30.25,ENE,77,0.0,0.0,43,0.00,,---,0.00,VWS V14.00,2013-04-25 01:09:00,
2013-04-24 20:14:00,53.0,31.7,30.25,ENE,77,0.0,0.0,44,0.00,,---,0.00,VWS V14.00,2013-04-25 01:14:00,
2013-04-24 20:19:00,52.7,33.0,30.25,ENE,77,0.0,0.0,47,0.00,,---,0.00,VWS V14.00,2013-04-25 01:19:00,
2013-04-24 20:24:00,52.5,31.2,30.26,ENE,77,0.0,0.0,44,0.00,,---,0.00,VWS V14.00,2013-04-25 01:24:00,
2013-04-24 20:29:00,52.2,31.0,30.25,ENE,77,0.0,0.0,44,0.00,,---,0.00,VWS V14.00,2013-04-25 01:29:00,
2013-04-24 20:34:00,51.8,33.3,30.26,ENE,77,0.0,0.0,49,0.00,,---,0.00,VWS V14.00,2013-04-25 01:34:00,
2013-04-24 20:39:00,51.0,32.5,30.26,ENE,77,0.0,0.0,49,0.00,,---,0.00,VWS V14.00,2013-04-25 01:39:00,
2013-04-24 20:44:00,50.3,31.9,30.26,ENE,77,0.0,0.0,49,0.00,,---,0.00,VWS V14.00,2013-04-25 01:44:00,
2013-04-24 20:49:00,49.6,32.2,30.26,ENE,77,0.0,0.0,51,0.00,,---,0.00,VWS V14.00,2013-04-25 01:49:00,
2013-04-24 20:54:00,49.2,32.3,30.26,ENE,77,0.0,0.0,52,0.00,,---,0.00,VWS V14.00,2013-04-25 01:54:00,
2013-04-24 20:59:00,48.9,32.5,30.26,ENE,77,0.0,0.0,53,0.00,,---,0.00,VWS V14.00,2013-04-25 01:59:00,
2013-04-24 21:04:00,48.7,32.3,30.26,East,86,0.0,0.0,53,0.00,,---,0.00,VWS V14.00,2013-04-25 02:04:00,
2013-04-24 21:09:00,48.5,32.6,30.26,East,86,0.0,0.0,54,0.00,,---,0.00,VWS V14.00,2013-04-25 02:09:00,
2013-04-24 21:14:00,48.3,32.4,30.26,East,86,0.0,0.0,54,0.00,,---,0.00,VWS V14.00,2013-04-25 02:14:00,
2013-04-24 21:19:00,48.1,33.2,30.26,East,86,0.0,0.0,56,0.00,,---,0.00,VWS V14.00,2013-04-25 02:19:00,
2013-04-24 21:24:00,47.8,32.9,30.27,East,86,0.0,0.0,56,0.00,,---,0.00,VWS V14.00,2013-04-25 02:24:00,
2013-04-24 21:29:00,47.6,32.7,30.27,East,92,0.0,0.0,56,0.00,,---,0.00,VWS V14.00,2013-04-25 02:29:00,
2013-04-24 21:34:00,47.4,33.0,30.27,East,92,0.0,0.0,57,0.00,,---,0.00,VWS V14.00,2013-04-25 02:34:00,
2013-04-24 21:39:00,47.1,32.2,30.27,East,92,0.0,0.0,56,0.00,,---,0.00,VWS V14.00,2013-04-25 02:39:00,
2013-04-24 21:44:00,46.9,32.5,30.27,East,92,0.0,0.0,57,0.00,,---,0.00,VWS V14.00,2013-04-25 02:44:00,
2013-04-24 21:49:00,46.7,32.3,30.28,East,92,0.0,0.0,57,0.00,,---,0.00,VWS V14.00,2013-04-25 02:49:00,
2013-04-24 21:54:00,46.4,32.0,30.28,East,92,0.0,0.0,57,0.00,,---,0.00,VWS V14.00,2013-04-25 02:54:00,
2013-04-24 21:59:00,46.2,31.8,30.28,East,92,0.0,0.0,57,0.00,,---,0.00,VWS V14.00,2013-04-25 02:59:00,
2013-04-24 22:04:00,46.1,32.2,30.28,East,92,0.0,0.0,58,0.00,,---,0.00,VWS V14.00,2013-04-25 03:04:00,
2013-04-24 22:09:00,46.0,31.6,30.28,East,92,0.0,0.0,57,0.00,,---,0.00,VWS V14.00,2013-04-25 03:09:00,
2013-04-24 22:14:00,45.9,31.1,30.29,East,92,0.0,0.0,56,0.00,,---,0.00,VWS V14.00,2013-04-25 03:14:00,
2013-04-24 22:19:00,45.9,31.1,30.29,East,92,0.0,0.0,56,0.00,,---,0.00,VWS V14.00,2013-04-25 03:19:00,
2013-04-24 22:24:00,45.8,31.5,30.29,East,92,0.0,0.0,57,0.00,,---,0.00,VWS V14.00,2013-04-25 03:24:00,
2013-04-24 22:29:00,45.8,32.7,30.29,East,92,0.0,0.0,60,0.00,,---,0.00,VWS V14.00,2013-04-25 03:29:00,
2013-04-24 22:34:00,45.6,32.1,30.29,East,92,0.0,0.0,59,0.00,,---,0.00,VWS V14.00,2013-04-25 03:34:00,
2013-04-24 22:39:00,45.4,31.5,30.29,East,92,0.0,0.0,58,0.00,,---,0.00,VWS V14.00,2013-04-25 03:39:00,
2013-04-24 22:44:00,45.2,31.3,30.30,East,92,0.0,0.0,58,0.00,,---,0.00,VWS V14.00,2013-04-25 03:44:00,
2013-04-24 22:49:00,45.0,31.1,30.30,East,92,0.0,0.0,58,0.00,,---,0.00,VWS V14.00,2013-04-25 03:49:00,
2013-04-24 22:54:00,45.0,31.5,30.30,East,92,0.0,0.0,59,0.00,,---,0.00,VWS V14.00,2013-04-25 03:54:00,
2013-04-24 22:59:00,44.9,31.0,30.30,East,92,0.0,0.0,58,0.00,,---,0.00,VWS V14.00,2013-04-25 03:59:00,
2013-04-24 23:01:00,44.9,31.0,30.30,East,92,0.0,0.0,58,0.00,,---,0.00,VWS V14.00,2013-04-25 04:01:00,
2013-04-24 23:06:00,44.8,30.9,30.30,East,92,0.0,0.0,58,0.00,,---,0.00,VWS V14.00,2013-04-25 04:06:00,
2013-04-24 23:11:00,44.7,30.9,30.30,East,92,0.0,0.0,58,0.00,,---,0.00,VWS V14.00,2013-04-25 04:11:00,
2013-04-24 23:16:00,44.7,31.3,30.31,East,92,0.0,0.0,59,0.00,,---,0.00,VWS V14.00,2013-04-25 04:16:00,
2013-04-24 23:21:00,44.5,31.9,30.31,East,92,0.0,0.0,61,0.00,,---,0.00,VWS V14.00,2013-04-25 04:21:00,
2013-04-24 23:26:00,44.2,32.4,30.31,East,92,0.0,0.0,63,0.00,,---,0.00,VWS V14.00,2013-04-25 04:26:00,
2013-04-24 23:31:00,43.9,33.3,30.31,East,92,0.0,0.0,66,0.00,,---,0.00,VWS V14.00,2013-04-25 04:31:00,
2013-04-24 23:36:00,43.6,33.4,30.31,East,92,0.0,0.0,67,0.00,,---,0.00,VWS V14.00,2013-04-25 04:36:00,
2013-04-24 23:41:00,43.1,32.5,30.31,East,92,0.0,0.0,66,0.00,,---,0.00,VWS V14.00,2013-04-25 04:41:00,
2013-04-24 23:46:00,42.8,32.2,30.32,East,92,0.0,0.0,66,0.00,,---,0.00,VWS V14.00,2013-04-25 04:46:00,
2013-04-24 23:51:00,42.6,31.7,30.32,East,92,0.0,0.0,65,0.00,,---,0.00,VWS V14.00,2013-04-25 04:51:00,
2013-04-24 23:56:00,42.5,32.0,30.32,East,92,0.0,0.0,66,0.00,,---,0.00,VWS V14.00,2013-04-25 04:56:00,